This is the latest recevied weather packets stored in our database for station/object SQ7RAF-15. If no packets are shown the sender has not sent any weather packets the latest 10 day(s).
| Time | Temp. | Humidity | Pressure | Rain* | Wind** | Luminosity | Snow |
|---|---|---|---|---|---|---|---|
| 1777800331 | 23.89° C | 36% | 1017.8 hPa | 0 mm | - | 616 W/m² | - |
| 1777800041 | 23.89° C | 37% | 1017.7 hPa | 0 mm | - | 630 W/m² | - |
| 1777799722 | 23.89° C | 37% | 1017.8 hPa | 0 mm | - | 661 W/m² | - |
| 1777799433 | 23.33° C | 38% | 1017.8 hPa | 0 mm | - | 671 W/m² | - |
| 1777799145 | 23.89° C | 38% | 1017.9 hPa | 0 mm | - | 681 W/m² | - |
| 1777798825 | 23.33° C | 39% | 1017.8 hPa | 0 mm | - | 664 W/m² | - |
| 1777798537 | 23.33° C | 39% | 1017.9 hPa | 0 mm | - | 665 W/m² | - |
| 1777798217 | 22.78° C | 40% | 1018 hPa | 0 mm | - | 647 W/m² | - |
| 1777797929 | 22.78° C | 40% | 1017.9 hPa | 0 mm | - | 643 W/m² | - |
| 1777797641 | 22.78° C | 40% | 1017.9 hPa | 0 mm | - | 646 W/m² | - |
| 1777797322 | 22.22° C | 40% | 1018.1 hPa | 0 mm | - | 641 W/m² | - |
| 1777797033 | 22.22° C | 41% | 1018 hPa | 0 mm | - | 580 W/m² | - |
| 1777796746 | 21.67° C | 42% | 1017.9 hPa | 0 mm | - | 551 W/m² | - |
| 1777796425 | 21.67° C | 42% | 1018 hPa | 0 mm | - | 550 W/m² | - |
| 1777796137 | 21.11° C | 43% | 1018 hPa | 0 mm | - | 532 W/m² | - |
| 1777795817 | 21.11° C | 44% | 1018.2 hPa | 0 mm | - | 489 W/m² | - |
| 1777795529 | 21.11° C | 45% | 1018.1 hPa | 0 mm | - | 429 W/m² | - |
| 1777795241 | 20.56° C | 46% | 1018.2 hPa | 0 mm | - | 439 W/m² | - |
| 1777794921 | 20.56° C | 47% | 1018.2 hPa | 0 mm | - | 465 W/m² | - |
| 1777794633 | 20.56° C | 47% | 1018.1 hPa | 0 mm | - | 458 W/m² | - |
| 1777794345 | 20° C | 47% | 1018.2 hPa | 0 mm | - | 428 W/m² | - |
| 1777794025 | 20° C | 48% | 1018.3 hPa | 0 mm | - | 428 W/m² | - |
| 1777793737 | 20° C | 47% | 1018.2 hPa | 0 mm | - | 424 W/m² | - |
| 1777793417 | 20° C | 47% | 1018.3 hPa | 0 mm | - | 407 W/m² | - |
| 1777793130 | 19.44° C | 49% | 1018.2 hPa | 0 mm | - | 407 W/m² | - |
* Rain latest hour (hover to see other rain measurements)
** Current wind speed in m/s (hover to see current wind gust speed)